Wetbulb
71.36 73.57 71.71 72.19 72.52 72.62 72.57 72.53 72.60 72.80 73.14 73.23 72.99 72.95 72.83 72.49 72.29 72.11 71.67 71.48 71.31 71.07 70.77 70.48 70.17 70.09 69.82 69.56 68.98 68.67 68.64 68.73 69.48 69.13 68.59 68.45 67.78 67.59 67.42 67.25 69.10 68.72 69.33
72.56 73.52 71.10 71.68 72.26 72.28 72.43 72.56 72.70 72.81 73.08 73.05 72.87 72.62 72.46 72.42 72.24 71.96 71.60 71.48 71.51 70.70 71.00 70.42 70.07 69.66 69.34 68.76 68.25 68.11 67.89 67.89 68.13 67.94 68.21 68.56 67.86 67.34 67.17 67.03 67.50 67.87 68.52
72.64 73.33 70.99 71.48 71.97 72.12 72.53 72.71 72.89 73.11 73.07 72.45 72.06 72.32 72.25 71.97 72.00 71.91 71.67 71.41 71.46 70.44 70.13 69.52 69.03 68.81 68.41 68.25 68.15 67.79 67.50 67.26 67.26 66.25 66.81 68.45 67.44 67.47 66.97 66.79 66.42 66.15 66.53
73.43 73.37 70.59 71.12 71.57 72.00 72.09 72.39 72.66 73.18 72.80 72.53 72.13 72.16 72.33 71.85 72.00 71.74 71.52 71.13 70.94 69.94 69.29 68.81 68.58 68.34 68.18 67.83 67.34 67.27 66.89 66.24 66.32 67.70 68.88 69.06 67.80 67.06 67.12 66.25 65.85 65.71 65.52
73.46 73.27 71.73 70.50 71.00 71.70 72.05 72.39 72.65 72.65 72.39 72.23 71.99 72.18 71.92 71.73 71.73 71.32 71.54 71.19 71.11 69.99 69.06 68.55 68.27 67.86 67.27 66.92 66.51 66.75 66.19 65.54 65.64 67.07 68.80 69.46 69.54 67.42 66.42 65.69 66.14 65.33 65.64
73.46 73.71 70.30 69.74 70.67 71.61 71.99 72.39 72.41 72.19 71.86 71.84 71.86 71.94 71.77 71.34 71.27 71.44 71.34 71.54 71.33 70.23 69.01 68.22 67.70 67.18 66.82 66.39 66.34 66.38 66.04 65.42 66.41 69.78 69.54 67.50 69.83 67.10 66.14 65.48 65.26 65.40 64.97
73.23 73.93 72.69 69.30 70.43 71.44 72.25 72.36 71.98 71.62 71.44 71.26 71.42 71.70 71.60 71.69 71.53 71.18 71.07 71.22 70.88 70.57 68.76 67.99 67.40 67.02 66.74 66.43 66.22 65.96 65.98 66.13 70.41 69.68 69.90 69.44 69.73 67.60 66.57 65.87 65.13 64.87 64.68
73.12 73.82 72.83 70.36 70.23 70.82 71.35 71.51 70.92 70.69 70.68 70.54 70.92 71.21 71.49 71.27 70.97 70.93 70.70 70.60 70.30 69.57 69.02 68.17 67.62 67.07 66.86 66.67 66.41 66.03 65.95 66.63 69.32 70.07 69.90 69.65 67.57 68.32 67.48 66.53 65.73 65.11 64.97
73.66 73.55 73.42 71.87 71.00 69.91 69.91 69.87 69.45 69.60 69.61 69.90 70.06 70.33 70.80 70.19 69.83 70.18 70.02 70.07 69.81 69.13 68.71 67.64 67.37 67.14 66.94 66.85 66.41 65.91 65.68 66.87 70.96 70.81 69.67 70.09 67.33 68.98 68.40 67.53 66.86 66.03 65.72
73.37 72.40 73.68 72.84 71.78 71.37 71.68 68.80 68.66 68.75 68.70 68.92 69.46 69.42 69.29 69.11 69.46 69.71 69.64 69.67 69.44 68.93 68.29 67.73 67.12 66.76 66.75 66.39 66.14 65.64 66.15 66.90 71.84 70.60 70.65 70.12 68.06 68.44 69.25 68.92 68.37 67.77 67.14
70.57 70.82 73.67 73.11 72.70 72.40 72.06 70.99 68.84 68.73 68.61 68.55 69.26 68.86 68.17 69.40 70.08 70.52 68.72 69.04 69.53 68.84 68.30 67.87 67.26 66.48 65.91 65.98 65.73 66.00 66.12 71.68 71.51 71.87 71.30 66.29 67.60 68.75 69.25 68.88 68.17 67.54 67.23
69.96 70.77 72.75 73.31 73.10 73.06 72.01 72.32 70.82 69.95 70.23 70.34 69.87 70.17 69.73 69.41 69.66 68.63 68.63 68.42 68.93 68.55 68.17 67.69 67.33 66.31 65.58 70.07 69.55 66.44 70.83 72.61 71.36 72.32 71.35 66.96 67.80 68.75 68.75 69.03 68.64 68.21 67.48
70.53 70.86 71.91 72.92 73.49 73.32 72.54 71.98 71.06 69.95 69.40 69.71 70.32 70.26 69.97 69.48 69.79 69.25 69.01 68.47 69.09 67.83 68.15 67.43 67.37 67.57 69.53 70.88 71.03 71.49 71.79 71.50 71.97 71.27 68.03 65.85 67.59 68.30 68.14 68.38 68.88 69.21 68.10
70.06 70.44 71.43 72.44 73.13 73.18 72.45 71.48 71.28 69.94 69.53 69.57 70.13 70.88 69.98 69.36 68.99 68.49 68.09 68.13 68.72 69.03 69.02 68.58 68.05 68.83 70.56 71.00 71.32 71.72 71.61 71.06 71.01 70.24 66.81 63.56 66.66 67.53 69.06 68.46 67.86 67.18 66.04
69.76 70.51 71.00 71.89 72.28 72.52 72.61 71.69 71.35 70.38 69.24 69.84 69.96 70.68 70.22 69.43 68.84 68.88 68.70 68.60 68.85 69.87 70.36 69.60 69.17 69.42 70.29 70.60 71.21 71.21 71.02 69.85 68.92 67.67 68.08 64.71 66.00 68.92 68.39 66.90 65.74 65.41 65.08
69.89 70.53 71.20 71.34 72.11 72.44 72.16 72.08 71.08 70.85 69.72 69.57 69.62 70.18 70.74 70.07 69.67 68.78 68.70 68.95 69.50 70.38 70.69 70.32 69.78 69.63 69.70 70.57 71.03 70.93 69.95 68.69 67.59 66.66 66.86 66.43 63.06 65.02 66.06 64.53 63.10 64.09 62.46
69.76 70.40 70.88 71.31 71.83 71.81 71.89 72.13 71.61 70.82 70.20 69.03 69.13 70.53 70.87 70.72 70.38 70.06 68.76 69.16 69.66 70.67 71.23 71.22 70.50 70.31 69.99 70.71 70.56 69.99 68.33 67.13 66.06 65.15 65.49 65.97 63.78 59.01 59.89 60.90 60.27 58.82 58.44
70.79 70.42 70.49 70.79 71.27 71.40 71.53 71.77 71.33 70.85 70.38 69.74 69.17 69.43 70.62 70.91 70.67 70.33 69.14 68.94 70.43 71.02 71.25 70.93 70.31 69.39 70.13 69.89 68.81 67.80 66.53 65.16 64.15 64.08 63.88 64.08 63.49 61.08 56.58 58.49 58.50 57.80 57.40
70.78 71.27 70.92 70.88 70.73 71.22 71.29 71.52 71.58 71.70 70.59 70.23 69.76 69.17 69.67 70.36 70.53 70.12 69.67 69.62 70.16 70.68 70.99 70.64 70.05 69.86 68.94 68.55 67.24 66.13 64.24 63.08 62.63 61.62 60.93 60.98 61.02 60.11 59.12 54.43 56.35 56.44 55.55
69.61 71.38 72.12 72.01 71.09 71.17 71.50 71.57 71.02 70.56 70.66 70.58 70.05 69.63 69.94 69.78 70.14 70.10 69.67 69.91 70.31 69.82 70.44 70.50 70.00 69.51 69.59 67.92 64.41 61.88 61.48 61.63 61.29 60.42 59.62 58.64 58.74 58.80 58.64 58.00 56.89 55.67 54.97
65.25 68.63 70.18 71.41 72.08 71.18 70.14 69.63 69.50 69.07 69.57 69.76 70.03 70.35 70.00 69.93 69.90 69.74 69.36 69.58 70.10 69.40 69.39 70.88 70.30 68.94 66.61 65.18 57.35 54.22 54.89 57.07 59.03 59.08 58.91 57.86 57.39 57.44 57.27 57.25 56.87 56.51 55.40
61.96 62.67 66.83 69.41 70.84 71.74 71.00 70.66 70.72 70.35 70.29 70.40 70.24 70.67 70.84 69.90 70.60 69.71 69.87 69.35 69.76 69.40 69.63 70.61 70.11 68.07 66.80 61.91 60.33 54.70 51.55 52.81 56.78 57.25 57.43 56.81 57.30 56.47 56.05 55.89 55.86 54.94 55.26
62.06 62.67 62.71 65.74 69.36 70.94 71.71 71.17 70.59 70.54 70.61 69.60 69.87 70.08 70.57 69.99 70.88 70.77 70.49 70.38 71.00 70.78 69.90 70.99 70.33 68.33 65.28 62.12 62.72 59.80 53.01 53.77 56.92 56.56 55.97 56.44 56.68 56.04 55.97 55.18 54.58 54.53 54.70
60.74 62.53 63.25 63.53 65.84 69.58 71.52 71.20 70.04 68.85 67.84 70.20 70.28 70.72 70.57 71.03 70.53 70.88 70.90 70.88 70.98 70.91 70.63 70.96 70.80 69.07 67.13 61.16 60.32 58.97 55.86 57.34 54.44 51.86 54.58 55.17 55.86 55.43 55.53 54.88 54.31 54.23 53.89
59.55 60.67 62.12 62.92 63.52 65.54 70.00 70.89 70.25 69.74 70.06 70.64 70.81 71.03 72.35 71.49 71.02 70.06 70.96 71.05 70.60 70.77 71.14 71.49 68.74 69.08 67.52 60.11 57.15 55.02 55.16 53.96 54.71 53.41 51.88 51.42 54.26 55.12 55.47 55.08 54.56 53.79 52.85
58.54 59.96 61.09 60.80 61.38 63.19 64.65 68.77 70.10 69.55 69.98 69.67 70.34 70.35 71.06 71.74 71.66 71.14 70.83 70.88 70.80 70.57 70.63 70.88 71.11 66.65 60.55 63.33 57.73 56.53 56.10 51.92 52.21 51.38 52.54 52.80 51.95 53.51 54.96 54.53 53.84 53.31 53.03
MSLP
1011.28 1012.62 1014.53 1015.09 1015.56 1015.80 1015.96 1015.97 1016.29 1016.46 1016.82 1017.10 1017.25 1017.28 1017.37 1017.54 1017.72 1017.84 1017.92 1018.02 1018.09 1018.16 1018.25 1018.33 1018.38 1018.49 1018.58 1018.67 1018.75 1018.78 1018.80 1018.82 1018.83 1018.76 1018.74 1018.73 1018.78 1018.82 1018.77 1018.56 1018.18 1017.97 1018.61
1011.29 1012.86 1014.58 1015.10 1015.60 1015.85 1016.06 1016.13 1016.41 1016.63 1017.03 1017.21 1017.37 1017.52 1017.67 1017.86 1017.98 1018.05 1018.14 1018.24 1018.28 1018.33 1018.47 1018.60 1018.67 1018.71 1018.76 1018.85 1018.95 1019.02 1019.04 1019.03 1019.04 1018.98 1018.81 1018.69 1019.01 1019.08 1019.10 1019.09 1018.83 1018.80 1018.91
1011.52 1012.90 1014.41 1015.15 1015.66 1015.99 1016.20 1016.22 1016.53 1016.80 1017.10 1017.34 1017.52 1017.64 1017.74 1017.91 1017.99 1018.24 1018.37 1018.44 1018.51 1018.54 1018.65 1018.77 1018.89 1018.94 1019.02 1019.04 1019.07 1019.10 1019.10 1019.18 1019.26 1019.08 1018.54 1017.87 1018.65 1019.34 1019.42 1019.43 1019.36 1019.31 1019.27
1011.67 1013.07 1013.96 1015.24 1015.63 1015.98 1016.27 1016.34 1016.62 1016.88 1017.22 1017.39 1017.65 1017.76 1017.84 1017.96 1018.07 1018.33 1018.48 1018.64 1018.69 1018.80 1018.88 1018.97 1019.13 1019.22 1019.22 1019.25 1019.29 1019.26 1019.23 1019.30 1019.31 1019.01 1017.95 1017.74 1018.47 1019.54 1019.56 1019.56 1019.54 1019.52 1019.47
1011.84 1012.92 1013.84 1015.21 1015.59 1015.99 1016.32 1016.51 1016.70 1016.99 1017.27 1017.49 1017.74 1017.86 1018.01 1018.01 1018.13 1018.33 1018.60 1018.76 1018.79 1018.83 1018.98 1019.10 1019.22 1019.36 1019.41 1019.43 1019.40 1019.36 1019.31 1019.31 1019.23 1018.72 1017.80 1018.07 1018.06 1019.53 1019.71 1019.74 1019.71 1019.72 1019.64
1011.91 1012.70 1014.28 1015.14 1015.58 1016.00 1016.32 1016.52 1016.76 1017.06 1017.30 1017.69 1017.89 1018.00 1018.14 1018.24 1018.30 1018.42 1018.57 1018.67 1018.79 1018.84 1018.97 1019.13 1019.26 1019.33 1019.43 1019.48 1019.47 1019.45 1019.42 1019.24 1018.92 1017.59 1018.20 1018.78 1018.44 1019.66 1019.79 1019.84 1019.88 1019.88 1019.92
1011.91 1012.71 1014.31 1015.24 1015.52 1015.95 1016.30 1016.41 1016.72 1017.06 1017.36 1017.65 1017.99 1018.15 1018.31 1018.40 1018.41 1018.58 1018.63 1018.68 1018.81 1019.00 1019.09 1019.27 1019.37 1019.39 1019.39 1019.38 1019.42 1019.48 1019.42 1019.23 1018.01 1017.58 1017.74 1018.02 1018.73 1019.58 1019.72 1019.82 1019.88 1019.98 1019.99
1012.23 1013.00 1014.06 1015.30 1015.78 1016.04 1016.19 1016.37 1016.71 1016.94 1017.30 1017.70 1018.01 1018.22 1018.44 1018.62 1018.64 1018.75 1018.82 1018.85 1018.91 1019.04 1019.22 1019.37 1019.50 1019.55 1019.52 1019.45 1019.39 1019.43 1019.37 1019.17 1018.18 1017.79 1017.56 1017.65 1019.26 1019.49 1019.59 1019.76 1019.92 1019.93 1019.95
1012.52 1013.41 1013.97 1014.75 1015.42 1016.04 1016.28 1016.32 1016.57 1016.82 1017.16 1017.59 1017.94 1018.20 1018.37 1018.66 1018.73 1018.82 1018.96 1019.09 1019.10 1019.22 1019.32 1019.38 1019.51 1019.60 1019.60 1019.61 1019.56 1019.44 1019.31 1019.02 1017.73 1017.43 1017.47 1017.50 1019.28 1019.47 1019.51 1019.62 1019.73 1019.79 1019.88
1013.01 1013.92 1013.95 1014.67 1015.13 1015.49 1016.04 1016.58 1016.69 1016.82 1017.09 1017.34 1017.71 1018.05 1018.28 1018.61 1018.82 1018.87 1018.96 1019.05 1019.16 1019.25 1019.38 1019.45 1019.47 1019.53 1019.58 1019.58 1019.57 1019.54 1019.38 1018.94 1017.38 1017.51 1017.43 1017.90 1019.17 1019.49 1019.55 1019.58 1019.60 1019.65 1019.72
1013.41 1014.02 1013.81 1014.46 1014.93 1015.29 1015.55 1016.37 1017.06 1017.23 1017.35 1017.54 1017.69 1017.93 1018.24 1017.83 1018.20 1018.49 1018.47 1018.76 1019.08 1019.15 1019.29 1019.39 1019.45 1019.48 1019.48 1019.45 1019.48 1019.45 1019.28 1017.64 1017.54 1017.30 1017.34 1018.70 1019.14 1019.34 1019.40 1019.44 1019.51 1019.57 1019.65
1012.47 1013.50 1013.73 1013.99 1014.45 1014.86 1014.96 1015.57 1016.48 1016.71 1017.03 1017.16 1017.28 1017.57 1017.53 1017.19 1017.34 1017.35 1017.77 1018.72 1019.00 1019.14 1019.26 1019.32 1019.40 1019.44 1019.35 1018.08 1018.59 1019.13 1018.02 1017.57 1017.68 1017.47 1017.38 1018.83 1019.08 1019.21 1019.25 1019.30 1019.35 1019.46 1019.61
1011.86 1012.76 1013.20 1013.83 1014.26 1014.50 1014.37 1014.80 1015.38 1015.73 1016.27 1016.60 1016.75 1016.89 1017.12 1017.04 1017.29 1017.57 1017.38 1018.03 1018.23 1018.73 1018.31 1018.77 1018.81 1018.54 1017.87 1017.43 1017.21 1017.41 1017.42 1017.80 1017.18 1017.45 1018.23 1018.98 1019.07 1019.12 1019.23 1019.25 1019.21 1019.36 1019.63
1011.21 1012.12 1012.87 1013.24 1013.92 1014.30 1014.09 1014.49 1014.58 1014.74 1015.29 1015.78 1016.07 1016.56 1016.59 1016.88 1016.94 1017.10 1016.92 1017.06 1017.37 1017.28 1017.27 1017.36 1017.30 1017.43 1017.57 1017.69 1017.49 1017.40 1017.55 1017.28 1017.18 1017.41 1018.09 1018.99 1019.05 1019.14 1019.23 1019.37 1019.42 1019.55 1019.72
1010.59 1011.39 1012.21 1012.86 1013.38 1013.87 1014.17 1013.98 1014.21 1014.36 1014.61 1014.89 1015.31 1015.92 1016.06 1016.24 1016.41 1016.61 1016.60 1016.63 1016.67 1016.67 1016.82 1016.85 1016.81 1017.14 1017.38 1017.39 1017.38 1017.28 1017.31 1017.51 1017.65 1017.48 1017.55 1019.08 1018.98 1019.07 1019.27 1019.45 1019.58 1019.76 1019.93
1010.10 1010.72 1011.58 1012.26 1012.87 1013.28 1013.60 1013.69 1013.86 1014.03 1014.13 1014.60 1014.81 1014.99 1015.72 1015.68 1015.80 1016.07 1016.26 1016.30 1016.24 1016.28 1016.33 1016.44 1016.53 1016.70 1016.87 1016.83 1017.00 1017.33 1017.34 1017.50 1017.64 1017.85 1017.58 1018.92 1019.35 1019.28 1019.45 1019.58 1019.73 1019.88 1020.03
1009.25 1010.03 1010.68 1011.56 1012.21 1012.72 1013.13 1013.20 1013.47 1013.43 1013.81 1013.89 1014.06 1014.64 1015.01 1015.29 1015.35 1015.60 1015.66 1015.80 1015.76 1015.91 1016.22 1016.38 1016.58 1016.64 1016.43 1016.32 1016.65 1017.06 1017.34 1017.62 1017.72 1017.98 1017.85 1018.18 1019.53 1020.00 1020.02 1020.16 1020.15 1020.01 1019.98
1008.24 1008.95 1010.05 1010.67 1011.29 1011.81 1012.24 1012.62 1012.64 1012.78 1012.99 1013.21 1013.55 1013.68 1014.41 1014.80 1014.88 1015.18 1015.05 1015.23 1015.27 1015.54 1015.85 1016.02 1016.18 1016.20 1016.24 1016.16 1016.43 1016.78 1017.05 1017.39 1017.79 1018.04 1018.01 1018.09 1018.38 1019.26 1020.33 1020.47 1020.42 1020.36 1020.32
1007.75 1008.26 1009.09 1010.05 1010.50 1010.92 1011.41 1011.60 1011.86 1012.00 1012.29 1012.33 1012.69 1012.96 1013.25 1014.00 1014.39 1014.46 1014.38 1014.42 1014.89 1014.90 1015.07 1015.40 1015.62 1015.82 1015.85 1016.21 1016.41 1016.75 1017.02 1017.21 1017.74 1017.82 1018.21 1018.51 1018.64 1018.71 1018.97 1020.62 1020.41 1020.45 1020.50
1007.26 1007.67 1008.24 1009.05 1009.78 1010.51 1010.92 1011.17 1011.27 1011.43 1011.55 1011.75 1011.84 1012.10 1012.62 1013.11 1013.59 1013.73 1013.67 1013.85 1014.23 1014.38 1014.44 1014.80 1015.15 1015.41 1015.62 1015.98 1016.40 1016.91 1017.22 1017.24 1017.35 1017.68 1018.09 1018.32 1018.64 1019.02 1019.10 1019.30 1019.70 1020.04 1020.63
1007.03 1007.30 1007.70 1008.20 1008.82 1009.60 1009.88 1009.89 1010.07 1010.01 1010.47 1010.63 1010.76 1010.96 1011.56 1012.13 1012.77 1013.15 1013.03 1013.21 1013.55 1013.58 1013.71 1014.10 1014.46 1015.12 1015.89 1016.35 1017.17 1017.91 1018.13 1017.99 1017.74 1017.60 1017.80 1017.97 1018.50 1018.92 1019.12 1019.25 1019.07 1019.13 1020.07
1007.55 1007.47 1007.25 1007.82 1008.16 1008.48 1008.78 1008.83 1009.04 1009.28 1009.20 1009.49 1009.75 1009.99 1010.30 1010.77 1011.14 1011.55 1012.09 1012.07 1012.41 1012.82 1013.17 1013.38 1013.89 1014.17 1014.94 1016.06 1016.19 1017.17 1017.67 1017.97 1017.58 1017.70 1017.66 1017.93 1018.35 1018.55 1018.87 1019.20 1019.23 1019.35 1019.31
1007.72 1007.81 1007.49 1007.17 1007.40 1007.81 1007.97 1008.25 1008.39 1008.71 1008.72 1008.51 1008.43 1008.72 1009.11 1009.70 1009.92 1010.04 1010.42 1011.00 1011.17 1011.57 1011.74 1012.41 1013.01 1013.37 1013.75 1014.95 1015.12 1015.38 1016.32 1015.96 1015.95 1016.91 1017.69 1017.75 1018.22 1018.39 1018.35 1018.95 1019.24 1019.35 1019.49
1008.44 1008.24 1007.92 1007.58 1007.10 1007.10 1007.39 1007.54 1007.67 1007.62 1007.35 1007.06 1007.49 1007.54 1007.94 1008.34 1008.68 1008.95 1009.20 1009.38 1009.76 1010.08 1010.45 1010.80 1011.86 1012.45 1012.98 1013.78 1015.43 1016.00 1015.92 1014.91 1015.22 1016.10 1016.85 1017.36 1017.88 1018.03 1018.29 1018.24 1018.79 1019.13 1019.28
1008.95 1008.65 1008.42 1007.92 1007.18 1007.04 1006.95 1007.10 1007.17 1006.98 1006.79 1006.65 1006.58 1006.66 1006.75 1007.21 1007.61 1007.93 1008.07 1008.38 1008.52 1008.87 1009.06 1009.61 1010.42 1011.20 1011.82 1013.05 1014.00 1014.57 1016.21 1015.91 1015.06 1015.20 1015.20 1016.22 1017.22 1017.38 1017.65 1018.02 1018.11 1018.67 1019.26
1009.16 1008.75 1008.59 1008.07 1007.52 1007.21 1007.06 1006.67 1006.63 1006.67 1006.18 1006.04 1005.96 1005.81 1005.76 1005.93 1006.25 1006.53 1006.89 1007.18 1007.39 1007.65 1007.90 1008.44 1009.16 1010.10 1011.28 1012.38 1012.93 1013.80 1013.80 1014.66 1014.44 1014.60 1015.06 1014.87 1015.73 1016.22 1016.89 1017.55 1018.22 1018.39 1018.94
Wind_Speed
14 19 15 13 12 12 13 16 15 15 14 14 13 13 14 14 14 13 13 13 13 15 15 15 15 15 15 14 13 13 12 12 11 12 13 13 13 12 11 9 2 13 11
19 20 15 14 13 13 14 17 16 16 15 15 14 13 13 14 13 13 13 13 13 15 14 14 13 13 12 12 10 9 8 8 9 6 8 14 12 12 11 12 15 12 10
20 20 19 14 13 13 15 17 17 16 16 16 15 15 15 14 14 13 12 12 13 14 14 13 12 11 10 10 9 8 7 6 5 2 6 9 12 9 10 9 10 10 10
20 19 19 14 14 14 14 17 16 16 16 15 14 15 15 15 14 13 12 12 12 13 12 11 10 9 9 8 7 7 7 5 4 8 4 8 11 8 7 8 8 7 8
20 19 18 15 15 15 15 16 16 16 14 14 13 14 14 15 15 15 12 11 12 13 12 11 10 8 7 6 6 5 5 3 5 10 8 5 8 9 7 4 8 6 10
19 19 20 15 15 15 15 15 15 14 14 12 12 13 14 14 14 14 12 11 12 13 12 11 9 8 6 5 5 4 2 2 8 7 6 7 7 8 6 4 5 5 4
18 17 18 14 15 16 16 16 15 14 13 12 11 11 12 12 13 12 11 11 11 11 11 10 9 8 7 5 4 3 2 4 9 6 7 8 10 7 6 4 3 2 2
16 15 17 15 13 14 15 15 14 14 13 11 11 10 10 10 10 10 9 9 9 10 9 9 8 7 6 5 5 4 2 6 8 5 7 7 11 8 7 6 5 4 3
14 13 15 17 16 11 11 13 14 14 14 12 11 10 10 9 9 9 8 8 8 8 8 8 7 6 5 5 4 4 3 7 8 4 5 6 10 7 7 7 7 5 4
12 11 14 15 16 16 14 9 12 13 13 13 12 11 10 9 8 9 9 9 9 8 8 8 7 7 6 6 5 4 5 10 7 5 5 8 9 6 6 6 6 5 4
11 13 14 15 15 15 14 12 9 9 11 10 11 11 10 11 12 13 11 12 9 9 8 8 7 7 7 6 6 6 9 5 4 3 3 10 8 7 5 4 5 4 3
17 16 14 16 15 15 12 13 13 12 11 12 12 13 11 11 11 10 10 10 9 8 8 7 7 7 9 9 8 8 9 2 5 2 3 5 7 7 3 1 3 4 4
15 14 17 16 15 15 13 10 8 8 9 9 13 12 12 8 8 8 7 8 9 10 8 10 9 9 11 6 6 5 4 6 3 3 6 2 6 6 1 1 2 6 9
16 16 16 17 15 15 11 10 11 10 10 9 11 14 10 7 9 9 7 9 9 8 9 9 7 9 8 8 6 6 7 6 4 2 6 1 4 4 7 8 10 10 10
16 16 17 17 16 14 15 11 11 11 11 12 12 14 11 10 9 9 8 8 8 8 8 8 8 8 9 8 8 8 7 5 4 3 2 5 5 7 10 9 9 9 10
15 16 17 18 17 16 15 15 11 11 12 11 11 12 16 11 10 10 10 10 9 8 8 8 8 8 8 8 8 8 6 6 6 3 3 7 8 9 9 10 9 9 8
14 16 18 18 18 17 18 16 13 12 12 12 12 14 15 15 13 12 10 10 10 9 10 8 8 8 8 8 8 6 6 6 5 5 5 6 8 10 12 9 7 7 5
14 16 17 16 18 19 17 15 12 13 12 12 12 12 16 16 16 14 11 11 11 10 9 10 9 9 9 7 7 7 6 5 6 5 5 5 6 8 8 7 8 7 6
14 15 16 18 19 20 18 15 15 15 13 12 12 13 16 17 17 14 12 11 12 11 11 10 10 10 9 8 7 6 5 6 7 6 6 6 5 5 6 7 8 7 5
11 13 15 15 18 17 14 13 13 13 13 13 13 13 16 14 18 16 13 14 13 12 12 11 12 10 9 9 7 6 5 5 5 6 7 7 7 6 6 7 8 7 4
7 11 14 15 17 14 13 14 14 15 13 14 14 18 18 17 18 17 14 15 14 14 14 14 12 11 9 6 6 2 2 4 6 6 7 7 8 8 5 5 4 3 8
11 10 9 13 15 15 13 13 13 12 13 13 14 16 18 20 19 18 17 15 17 14 16 16 13 11 11 11 8 5 4 5 8 8 8 7 8 6 7 6 4 5 4
12 12 11 8 11 14 16 12 12 12 12 13 14 14 16 20 19 20 20 17 16 15 13 16 14 18 13 12 14 6 4 6 7 8 10 8 8 7 6 5 5 5 4
14 13 13 10 8 10 14 13 17 14 15 13 13 13 14 20 21 21 21 20 19 14 16 15 14 15 15 13 6 5 3 2 6 5 8 10 9 9 8 6 6 6 5
14 14 13 13 10 8 10 14 13 17 14 12 13 16 16 16 20 22 21 20 19 16 17 18 16 18 13 8 7 7 8 5 4 6 7 8 10 10 8 7 6 5 5
13 14 14 15 14 13 11 12 16 19 17 14 14 13 12 12 13 20 22 19 19 17 19 17 18 18 11 10 9 8 9 7 9 7 7 8 11 11 9 7 7 5 4
Wind_Direction
155 140 154 150 157 152 143 128 125 123 125 129 130 128 122 120 117 113 111 110 111 108 106 103 100 97 93 89 83 78 73 68 61 69 76 75 73 71 64 30 293 82 71
153 147 152 151 157 155 148 133 131 130 133 134 130 125 123 124 121 120 120 120 119 114 109 106 104 103 101 96 92 85 76 69 70 77 111 103 78 70 64 49 32 73 72
152 152 162 152 158 156 152 138 137 137 140 140 139 137 133 131 128 126 126 126 122 119 117 114 111 107 102 99 93 82 75 80 98 116 253 83 82 76 73 69 67 69 73
149 153 162 155 159 159 154 144 144 144 146 145 145 141 139 136 133 134 131 129 127 122 119 116 111 104 97 88 79 75 77 83 134 219 163 96 94 91 87 77 73 69 85
154 159 151 159 161 163 159 153 149 148 148 148 148 147 145 143 142 140 137 137 134 128 126 124 118 113 103 98 89 79 77 101 178 226 109 91 90 96 88 78 123 87 39
159 163 139 160 162 165 162 156 152 152 150 153 154 153 152 150 150 147 144 146 145 140 138 136 135 133 129 120 104 95 88 242 229 144 129 113 76 98 94 80 70 80 79
164 165 158 163 164 169 168 158 157 155 154 155 159 158 158 158 154 154 151 150 148 147 148 149 151 152 151 148 138 132 163 253 262 167 155 149 107 131 130 142 138 124 116
164 165 164 165 168 175 172 161 162 158 158 159 161 160 161 163 157 159 157 154 151 151 153 156 159 164 166 165 164 168 206 256 218 169 172 146 122 162 161 168 171 174 181
166 171 172 178 178 181 179 167 167 165 163 163 165 164 162 165 163 165 166 167 163 161 162 166 167 171 182 188 195 200 227 266 266 150 195 139 154 187 185 179 180 182 190
166 182 180 185 186 186 186 180 175 171 169 168 169 171 169 170 178 182 176 184 178 174 174 176 181 180 192 204 219 235 239 248 243 157 193 94 140 199 227 203 201 200 203
173 187 184 188 190 191 191 185 187 182 176 172 175 176 172 195 184 173 199 156 188 186 187 188 192 199 201 207 206 221 238 228 192 185 189 116 166 210 240 221 200 194 190
182 186 193 189 192 191 196 185 199 193 198 197 194 184 207 204 195 198 172 177 197 201 202 204 209 214 225 192 179 201 228 192 232 229 91 141 197 210 216 271 260 204 165
189 189 192 194 194 197 197 189 193 195 200 203 203 197 209 200 202 209 192 191 202 199 203 198 195 216 213 224 204 208 197 216 225 220 91 155 207 207 225 34 106 121 113
195 196 196 194 196 201 201 198 198 198 197 203 204 203 204 209 203 210 211 200 207 189 211 202 204 217 206 219 234 220 225 250 213 219 110 122 185 162 124 103 105 113 118
200 198 200 199 199 203 213 205 213 210 203 204 202 200 208 207 206 211 214 214 210 206 203 207 216 203 206 215 220 228 218 235 223 238 118 54 134 145 129 122 117 119 118
210 205 202 204 205 204 212 215 210 215 215 212 210 207 209 211 205 209 211 213 212 214 214 211 209 208 217 219 218 235 224 226 210 203 180 106 54 97 118 123 120 129 125
217 213 208 206 206 209 216 214 218 216 221 214 216 212 208 213 211 215 214 216 214 212 219 221 213 227 221 217 222 204 211 212 201 207 207 150 132 72 76 87 105 107 124
230 218 215 210 208 209 213 219 221 222 218 223 222 216 215 215 218 211 215 216 217 214 212 216 214 220 227 217 210 212 212 201 198 191 209 204 176 149 112 86 94 92 91
249 235 224 218 218 213 212 216 218 223 222 222 221 222 214 215 217 223 220 216 218 220 217 220 219 225 220 220 210 206 199 204 193 190 174 195 186 199 148 121 109 84 83
264 250 239 227 224 223 222 218 223 223 226 226 225 225 222 216 218 216 223 221 213 221 221 216 223 214 228 217 211 197 198 203 206 198 190 189 176 189 210 191 169 124 79
302 260 249 242 231 221 218 219 217 222 222 224 226 225 222 221 218 221 224 217 220 223 222 211 211 212 212 183 144 135 227 225 213 202 202 197 183 202 184 205 237 225 144
15 353 275 248 251 227 231 228 230 227 228 229 228 227 221 220 216 216 221 223 216 225 223 222 207 199 204 183 191 155 182 191 218 213 207 207 193 200 197 214 212 234 250
15 4 1 313 250 250 233 243 234 235 239 232 228 229 222 222 219 214 213 218 218 215 220 216 204 207 202 188 201 175 170 223 170 188 210 214 191 221 211 201 210 208 214
8 358 350 352 318 253 251 235 241 238 235 235 234 230 226 219 220 219 218 213 214 211 214 213 203 209 209 192 189 278 293 302 203 178 205 209 208 217 210 209 188 201 203
7 357 352 345 344 321 256 243 246 245 251 253 248 241 234 228 223 225 221 218 215 215 214 211 202 204 204 155 191 154 224 230 216 262 190 192 208 212 197 206 203 199 202
6 3 352 350 345 342 325 267 247 257 258 257 256 253 241 235 227 223 224 221 221 218 214 210 206 200 177 193 188 190 181 177 196 201 238 188 200 195 202 188 201 201 192